Terminal Aerodrome Forecast
Issued by NWS

Home | Current Version | Previous Version | Text Only | Print | Product List | Glossary On
Versions: 1 2 3 4 5 6 7 8 9 10 11 12 13
000
FTUS45 KPSR 300524
TAFIPL
TAF
KIPL 300524Z 3006/3106 27010KT P6SM SKC
     FM301400 VRB04KT P6SM SKC
     FM302200 26014KT P6SM FEW250=

USA.gov is the U.S. government's official web portal to all federal, state and local government web resources and services.